www.pogodaiklimat.ru

Погода и климат >> Архив погоды >> Россия >> Красноярский край >> Верещагино


ПОГОДА в Верещагино

  • Прогноз погоды в Верещагино
  • Монитор погоды в Верещагино

АРХИВ ПОГОДЫ в Верещагино

Время (UTC), дата Ветер
(напр.,м/с)
 
Видим.   Явления Облачность Т
(С)
Тd
(С)
f
(%)
Тe
(С)
Тes
(С)
Комфортность P
(гПа)
Po
(гПа)
Тmin
(С)
Tmax
(С)
R
(мм)
R24
(мм)
S
(см)
03 12.09 ЮЗ 6-14
{14}
50 км в посл. час ливневой снег 8/8 300 м
[Cb cap]
+0.8 -0.1 94 -6 -6 1000.8 997.0
06 12.09 С 5-11
{14}
50 км {ливн. осадки} 10/10 300 м
[Cb cap]
+1.6 -3.2 70 -4 -4 1003.9 1000.1
09 12.09 СЗ 4-10
{11}
50 км 10/10 300 м
[Cb cap]
+2.1 -4.3 63 -2 -2 1005.7 1001.9
12 12.09 С 2
{10}
50 км 8/8 300 м
[Cb cap]
+2.2 -4.5 61 -1 -1 1007.4 1003.6 +2.5 2
15 12.09 СВ 1 н/о 10/10 600 м
[Cb cap]
+0.7 -1.6 85 -1 -1 1007.6 1003.8
18 12.09 СВ 1 н/о 10/10 600 м
[Cb cap]
+1.4 -0.3 88 -0 -0 1006.5 1002.7
21 12.09 СЗ 3 н/о слаб. ливневой снег 10/10 600 м
[Cb cap]
+2.2 +0.9 91 -2 -2 1015.1 1001.4
00 13.09 СЗ 3
{10}
10 км слаб. ливневой дождь 10/10 600 м
[Cb cap]
+1.9 +1.1 94 -3 -3 1004.9 1001.2 +1.2 0.3
03 13.09 СЗ 5-11
{11}
50 км {ливн. осадки} 10/10 300 м
[Cb cap]
+3.5 +0.9 83 -2 -2 1004.8 1001.1
06 13.09 С 5-10
{12}
50 км {ливн. осадки} 9/9 600 м
[Cb cap]
+4.5 +0.3 74 -0 0 1005.0 1001.3
09 13.09 СЗ 5
{11}
50 км в посл. час ливневой дождь 9/9 600 м
[Cb cap]
+4.9 +1.4 78 0 0 1006.5 1002.8
12 13.09 СЗ 3
{10}
50 км {ливн. осадки} 10/10 600 м
[Cb cap]
+4.5 +0.9 77 +1 +1 1007.9 1004.2 +5.5 0.5
15 13.09 СЗ 1 н/о 10/10 600 м
[Cb cap]
+3.4 +1.6 88 +2 +2 1008.2 1004.5
18 13.09 З 1 н/о 9/9 600 м
[Cb cap]
+2.5 +0.6 87 +1 +1 1009.6 1005.8
21 13.09 Ю 1 н/о 8/3 600 м
[Sc Ac trans Ci fib]
+1.2 +0.4 94 -1 -1 1009.6 1005.8
00 14.09 Ю 1 50 км в посл. час туман {ливн. осадки} 10/10 600 м
[Cb cap]
+1.2 +0.7 96 -1 -1 1009.8 1006.0 +0.4 0.3
03 14.09 З 1 50 км 9/9 600 м
[Cb cap]
+1.8 +0.5 91 0 0 1010.7 1006.9
06 14.09 З 1 50 км {ливн. осадки} 8/8 600 м
[Cb cap]
+4.5 0.0 73 +3 +4 1010.8 1007.0
09 14.09 ЮЗ 1 50 км 8/5 600 м
[Cb cap Ci fib]
+5.4 -1.0 63 +5 +6 1011.0 1007.2
12 14.09 ЮВ 1 50 км 5/4 600 м
[Sc Ci fib]
+5.0 -2.2 60 +4 +4 1011.0 1007.2 +6.5 0.3
15 14.09 ЮВ 1 н/о 4/4 600 м
[Sc]
-0.2 -2.3 86 -2 -2 1011.1 1007.3
18 14.09 В 1 н/о 4/4 600 м
[Sc]
-2.2 -3.1 94 -5 -5 1010.7 1006.9
21 14.09 В 1 н/о 1/1 600 м
[Sc]
-3.2 -4.3 92 -6 -6 1010.6 1006.7
00 15.09 С 2 500 м туман ?/? -1.5 -1.7 99 -6 -6 1011.0 1007.2 -4.5
03 15.09 С 1 50 км {туман} 9/9 300 м
[St]
-0.5 -1.7 92 -3 -2 1011.5 1007.8
06 15.09 С 2 50 км {туман} 9/9 600 м
[Sc]
+2.5 -3.4 65 -0 0 1012.3 1008.5
09 15.09 С 2 50 км 6/6 600 м
[Sc]
+2.8 -4.1 60 0 +1 1012.8 1009.0
12 15.09 С 2 50 км 6/6 600 м
[Sc]
+1.9 -3.8 66 -1 -1 1013.7 1009.9 +4.1
15 15.09 В 2 н/о 3/3 600 м
[Sc]
-2.1 -3.9 87 -6 -6 1014.2 1010.4
18 15.09 В 1 н/о 1/0
[Ci fib]
-3.9 -5.0 92 -6 -6 1014.2 1010.3
21 15.09 ЮВ 1 н/о 8/0
[Ac trans Ci fib]
-3.8 -5.0 91 -6 -6 1013.9 1010.0
00 16.09 В 2 50 км 10/0
[Ac trans Ci fib]
-3.0 -4.3 91 -7 -7 1012.8 1008.9 -4.9
03 16.09 Ю 2 50 км 10/0
[Ac As]
-0.2 -2.3 86 -4 -3 1012.4 1008.6
06 16.09 В 2 10 км слаб. дождь 10/6 600 м
[Sc Ac As]
+1.5 +0.7 94 -2 -2 1010.3 1006.5
09 16.09 ЮВ 2 4000 м ливневой дождь 10/10 600 м
[Cb cap]
+3.1 +2.6 97 -0 -0 1009.1 1005.3
12 16.09 Ю 2 10 км слаб. ливневой дождь 10/10 600 м
[Cb cap]
+3.5 +3.0 97 0 0 1008.0 1004.3 +3.6 7
15 16.09 Ю 3 н/о ливневой дождь 10/10 600 м
[Cb cap]
+4.4 +3.9 97 +1 +1 1007.3 1003.6
18 16.09 Ю 3 н/о {ливн. осадки} 10/10 600 м
[Cb cap]
+6.2 +5.8 97 +3 +3 1006.4 1002.7
21 16.09 Ю 3 н/о туман ?/? +7.7 +7.5 99 +5 +5 1005.9 1002.2
00 17.09 Ю 2 н/о туман ?/? +8.8 +8.6 99 +7 +7 1005.0 1001.3 +3.3 0.7
03 17.09 Ю 2 50 км в посл. час ливневой дождь {туман} 10/6 300 м
[Cb cap Ci fib]
+10.2 +9.4 95 +9 +9 1004.2 1000.5
06 17.09 Ю 4 50 км {гроза, ливн. осадки} 10/10 300 м
[Cb cap]
+11.9 +10.6 92 +10 +10 1003.9 1000.3
09 17.09 Ю 2
{11}
50 км 10/8 300 м
[Cb cap Ci fib]
+14.0 +11.2 83 +13 +14 1002.9 999.3
12 17.09 Ю 2 50 км в посл. час ливневой дождь 10/8 600 м
[Cb cap Ci fib]
+13.6 +12.1 91 +13 +13 1002.6 999.0 +15.3 0.8
15 17.09 ЮВ 2 н/о гроза, ливневой дождь 10/10 600 м
[Cb cap]
+12.6 +11.1 91 +12 +12 1000.7 997.1
18 17.09 ЮВ 3 н/о {гроза, ливн. осадки} 8/3 600 м
[Cb cap Ci fib]
+11.8 +10.4 91 +10 +10 997.8 994.2
21 17.09 Ю 2 н/о 10/10 600 м
[Cb cap]
+12.6 +11.5 93 +12 +12 996.6 993.0
00 18.09 Ю 5
{10}
50 км {ливн. осадки} 10/8 300 м
[Cb cap Cs]
+10.9 +9.9 94 +8 +8 996.0 992.4 +10.6 5
03 18.09 Ю 5-12
{13}
50 км в посл. час ливневой дождь 10/10 300 м
[Cb cap]
+9.3 +6.7 84 +6 +6 997.8 994.1 +9.3
06 18.09 З 4-10
{14}
50 км {ливн. осадки} 9/9 600 м
[Cb cap]
+9.8 +3.9 67 +7 +8 1002.0 998.3
09 18.09 ЮЗ 3
{10}
50 км 9/6 600 м
[Cb cap Ac trans Ci fib]
+11.4 +2.9 56 +10 +10 1004.2 1000.5
12 18.09 Ю 1 50 км 8/4 600 м
[Cb cap Ac trans Ci fib]
+8.7 +4.9 77 +8 +8 1005.9 1002.2 +12.2 0.0
15 18.09 Ю 1 н/о {ливн. осадки} 10/10 600 м
[Cb cap]
+6.9 +5.8 93 +6 +6 1007.0 1003.3
18 18.09 ЮВ 1 н/о {ливн. осадки} 10/10 600 м
[Cb cap]
+5.8 +4.4 91 +5 +5 1007.6 1003.9
21 18.09 ЮВ 1 н/о 10/10 600 м
[Cb cap]
+7.1 +5.8 91 +6 +6 1007.6 1003.9
00 19.09 Ю 2 50 км 8/8 300 м
[Cb cap]
+6.9 +5.8 93 +5 +5 1007.8 1004.1 +5.4 0.6

 

Местоположение метеостанции Верещагино (Красноярский край, Россия): широта 64.23 долгота 87.47 высота над уровнем моря 30 м.

В архиве по умолчанию представлена погода в Верещагино за последнюю неделю. Архивные данные за месяц целиком и за предыдущие месяцы, начиная с января 2011 года, Вы можете получить, выбрав интересующий диапазон дат из раскрывающегося списка и нажав кнопку "Ввод!".


*Определитесь, кто Вы:
робот инопланетянин человек

Внимание! Время в таблицах - всемирное. Для получения местного времени необходимо прибавить поправку, которая равна 7 ч.

Смотрите также архив погоды в соседних городах и на ближайших метеорологических станциях:

Погода в Верхнеимбатске (Красноярский край, Россия) (122 км)
Погода в Туруханске (Красноярский край, Россия) (174 км)
Погода в Большом Пороге (Эвенкия, Россия) (198 км)
Погода в Келлоге (Красноярский край, Россия) (203 км)
Погода в Бахте (Красноярский край, Россия) (210 км)
Погода в Курейке (Красноярский край, Россия) (249 км)
Погода в Тольке (Ямало-Ненецкий АО, Россия) (263 км)
Погода в Красноселькупске (Ямало-Ненецкий АО, Россия) (287 км)
Погода в Тутончанах (Эвенкия, Россия) (305 км)
Погода в Светлогорске (Красноярский край, Россия) (306 км)

Пояснения к столбцам:

Ветер - указаны скорость ветра в м/с - средняя за 10 мин, порывы в срок и между сроками (в фигурных скобках) и направление, откуда дует ветер: С - северный, СВ - северо-восточный, В - восточный, ЮВ - юго-восточный, Ю - южный, ЮЗ - юго-западный, З - западный, СЗ - северо-западный.
Видимость - горизонтальная дальность видимости в метрах или километрах. При видимости от 1 до 10 км при отсутствии осадков обычно наблюдается дымка, при ухудшении видимости до 1 км и менее - туман. В сухую погоду видимость может ухудшаться дымом, пылью или мглою.
Явления - указаны атмосферные явления, наблюдавшиеся в срок или в последний час перед сроком; фигурными скобками обозначены явления, наблюдавшиеся между сроками (за 1-3 часа до срока); квадратными скобками обозначены град или гололедные отложения с указанием их диаметра в мм.
Облачность - указаны через наклонную черту общая и нижняя облачность в баллах и высота нижней границы облаков в метрах; квадратными скобками обозначены формы облаков: Ci - перистые, Cs - перисто-слоистые, Cc - перисто-кучевые, Ac - высококучевые, As - высокослоистые, Sc - слоисто-кучевые, Ns - слоисто-дождевые, Cu - кучевые, Cb - кучево-дождевые. Подробнее классификацию облаков см. в Атласе облаков (PDF).
T - Температура воздуха - температура, измеренная на высоте 2 м над землей.
Td - Температура точки росы - температура, при понижении до которой содержащийся в воздухе водяной пар достигнет насыщения.
f - Относительная влажность воздуха - влажноcть воздуха, измеренная на высоте 2 м над землей.
Te - Эффективная температура - температура, которую ощущает одетый по сезону человек в тени. Характеристика душности погоды. При расчете учитывается влияние влажности воздуха и скорости ветра на теплоощущения человека.
Tes - Эффективная температура на солнце - температура, которую ощущает человек, с поправкой на солнечный нагрев. Характеристика знойности погоды. Зависит от высоты солнца над горизонтом, облачности и скорости ветра. Ночью, в пасмурную погоду, а также при ветре 12 м/с и более поправка равна нулю.
P - Атмосферное давление - приведенное к уровню моря атмосферное давление.
Po - Атмосферное давление - измеренное на уровне метеостанции атмосферное давление.
Tmin - Минимальная температура - минимум температуры воздуха на высоте 2 м над землей.
Tmax - Максимальная температура - максимум температуры воздуха на высоте 2 м над землей.
R - Количество осадков - Количество выпавших осадков за период времени, мм. При наведении курсора мыши на число - период времени, за который выпало указанное количество осадков.
R24 - Количество осадков - Количество выпавших осадков за 24 часа, мм.
S - Снежный покров - Высота снежного покрова, см. При наведении курсора мыши на число - состояние снежного покрова и степень покрытия местности в баллах.